Regional Weather Roundup
Issued by NWS

Home | Current Version | Previous Version | Text Only | Print | Product List | Glossary Off
Versions: 1 2 3 4 5 6 7 8 9 10 11 12 13 14 15 16 17 18 19 20 21 22 23 24 25 26 27 28 29 30 31 32 33 34 35 36 37 38 39 40 41 42 43 44 45 46 47 48 49 50

000
ASUS45 KCYS 170010
RWRWY

WYOMING REGIONAL WEATHER ROUNDUP
NATIONAL WEATHER SERVICE CHEYENNE WY
600 PM MDT TUE SEP 16 2014

NOTE:  "FAIR" INDICATES FEW OR NO CLOUDS BELOW 12,000 FEET
WITH NO SIGNIFICANT WEATHER AND/OR OBSTRUCTIONS TO VISIBILITY.

WYZ001-170100-
YELLOWSTONE NATIONAL PARK

CITY           SKY/WX    TMP DP  RH WIND       PRES   REMARKS
LK YELLOWSTONE   N/A     67  35  30 S3        30.27F
6HR MIN TEMP:  55; 6HR MAX TEMP:  68;

W YELLOWSTONE  NOT AVBL

$$
WYZ002>013-054>058-071-098>099-170100-
NORTHERN WYOMING

CITY           SKY/WX    TMP DP  RH WIND       PRES   REMARKS
JACKSON        MOSUNNY   73  39  29 CALM      30.15F
CODY           PTSUNNY   72  45  37 N6        30.05S
GREYBULL       PTSUNNY   84  36  18 W8        29.97S
6HR MIN TEMP:  71; 6HR MAX TEMP:  84;

WORLAND        MOSUNNY   82  46  28 NE6       29.97F
6HR MIN TEMP:  71; 6HR MAX TEMP:  85;

SHERIDAN       MOSUNNY   78  43  28 NW8       29.99S
6HR MIN TEMP:  77; 6HR MAX TEMP:  85;

BUFFALO        MOSUNNY   73  36  25 NW7       30.06S
6HR MIN TEMP:  73; 6HR MAX TEMP:  82;

GILLETTE       MOSUNNY   75  42  30 N8        30.00S
6HR MIN TEMP:  74; 6HR MAX TEMP:  85;

HULETT         FAIR      73  37  27 MISG      30.02
NEWCASTLE      FAIR      82  30  15 MISG      29.98

$$
WYZ014>020-022>026-101>103-170100-
CENTRAL WYOMING

CITY           SKY/WX    TMP DP  RH WIND       PRES   REMARKS
BIG PINEY      MOSUNNY   77  36  22 W13       30.20F
6HR MIN TEMP:  68; 6HR MAX TEMP:  81; 6HR PCP: TRACE;

PINEDALE       MOCLDY    73  34  23 CALM      30.21S
DUBOIS         FAIR      72  32  23 N15       30.18S
LANDER         MOSUNNY   83  34  17 NE12      30.06F
6HR MIN TEMP:  72; 6HR MAX TEMP:  87;

RIVERTON       MOSUNNY   83  33  16 NW10G18   30.06F
6HR MIN TEMP:  71; 6HR MAX TEMP:  86;

CASPER         SUNNY     80  32  17 NW9       30.06S
6HR MIN TEMP:  79; 6HR MAX TEMP:  87;

DOUGLAS        SUNNY     82  36  19 NW13      30.03S
6HR MIN TEMP:  78; 6HR MAX TEMP:  87;


$$
WYZ021-027>030-104>119-170100-
SOUTHERN WYOMING

CITY           SKY/WX    TMP DP  RH WIND       PRES   REMARKS
EVANSTON       MOSUNNY   77  37  23 W12       30.22S
6HR MIN TEMP:  75; 6HR MAX TEMP:  82; 6HR PCP: TRACE;

KEMMERER       MOCLDY   N/A N/A N/A W7        30.23F
ROCK SPRINGS   CLOUDY    74  38  27 W14G24    30.19S
6HR MIN TEMP:  74; 6HR MAX TEMP:  82;

DIXON          FAIR      78  38  23 CALM      30.21S
RAWLINS        MOSUNNY   76  29  17 SW15      30.18F
6HR MIN TEMP:  76; 6HR MAX TEMP:  82;

SARATOGA       FAIR      77  34  20 W9        30.22S
LARAMIE        SUNNY     74  30  19 NW13      30.22S
6HR MIN TEMP:  73; 6HR MAX TEMP:  78;

CHEYENNE       SUNNY     80  28  15 NW12      30.14F
6HR MIN TEMP:  77; 6HR MAX TEMP:  82;

TORRINGTON     SUNNY     80  46  30 S7        29.98F
6HR MIN TEMP:  78; 6HR MAX TEMP:  86;

PINE BLUFFS    FAIR      79  32  18 CALM      30.08S

$$


USA.gov is the U.S. government's official web portal to all federal, state and local government web resources and services.